Flag for Iran Weather past 2 weeks in Rafsanjan, Iran

Now
68 °F

Partly sunny.


Feels Like: 68 °F
Forecast: 60 / 79 °F
Wind: 14 mph from Southwest

Location: Kerman Airport

Current Time: Mar 31, 2015 at 3:10:21 PM

Latest Report: Mar 31, 2015 at 2:30 PM


Visibility: 4 mi

Pressure: 30.01 "Hg

Humidity: 43%

Dew point: 45 °F

Location of RafsanjanLocation

Historic Weather in Rafsanjan — Graph

°F

Rafsanjan temperature yesterday

Maximum temperature yesterday: 75 °F (at 2:30 PM)
Minimum temperature yesterday: 45 °F (at 5:30 AM)
Average temperature yesterday: 62 °F

Past Weeks' High & Low Weather Summary

 TemperatureHumidityPressure
High77 °F (Mar 29, 5:30 PM)100% (Mar 22, 4:30 AM)30.30 "Hg (Mar 22, 4:30 AM)
Low37 °F (Mar 29, 6:30 AM)4% (Mar 29, 4:30 PM)30.01 "Hg (Mar 31, 3:30 AM)
Average57 °F54%30.16 "Hg
* Reported Mar 16 1:30 PM — Mar 31 2:00 PM, Rafsanjan, Weather by CustomWeather, © 2015

Note: Actual official high and low records may vary slightly from our data, if they occured in-between our weather recording intervals... More about our weather records

Advertising

Rafsanjan weather history for previous 24 hours

 ConditionsComfort  
Time TempWeatherWind HumidityBarometerVisibility
2:00 PM
Tue, Mar 31
68 °FPartly sunny.16 mph40%30.01 "Hg4 mi
1:30 PM72 °FSandstorm.16 mph36%30.01 "Hg2 mi
12:30 PM73 °FSandstorm.18 mph31%30.01 "Hg2 mi
11:30 AM75 °FBroken clouds.21 mph29%30.04 "Hg4 mi
10:30 AM72 °FPartly sunny.16 mph33%30.07 "Hg4 mi
9:30 AM70 °FClear.7 mph35%30.07 "Hg5 mi
8:30 AM66 °FClear.5 mph43%30.07 "Hg5 mi
8:00 AM64 °FClear.5 mph49%30.04 "Hg6 mi
6:30 AM57 °FPassing clouds.9 mph59%30.04 "HgN/A
5:30 AM57 °FPassing clouds.9 mph59%30.01 "HgN/A
4:30 AM55 °FPassing clouds.9 mph67%30.01 "HgN/A
3:30 AM55 °FPassing clouds.5 mph72%30.01 "HgN/A
1:30 AM59 °FPassing clouds.5 mph63%30.04 "HgN/A
12:30 AM61 °FPassing clouds.5 mph55%30.07 "HgN/A
11:30 PM
Mon, Mar 30
61 °FPassing clouds.5 mph52%30.07 "HgN/A
10:30 PM63 °FPartly cloudy.5 mph49%30.09 "HgN/A
9:30 PM64 °FPassing clouds.5 mph40%30.07 "HgN/A
8:30 PM68 °FPassing clouds.7 mph33%30.09 "HgN/A
7:30 PM70 °FBroken clouds.7 mph31%30.07 "HgN/A
6:30 PM72 °FBroken clouds.7 mph25%30.07 "HgN/A
5:30 PM73 °FScattered clouds.7 mph22%30.04 "HgN/A
4:30 PM75 °FBroken clouds.12 mph24%30.04 "HgN/A
4:00 PM75 °FBroken clouds.9 mph21%30.04 "HgN/A
3:30 PM75 °FBroken clouds.5 mph21%30.07 "HgN/A
3:00 PM75 °FBroken clouds.7 mph21%30.07 "HgN/A
Weather by CustomWeather, © 2015

See weather overviewHow to use our weather pages